Location: Medlow Airstrip Trail, Medlow Bath NSW 2780, Australia
(33.6682°S, 150.3233°E)
Time: 13:19:24
(UTC+10:00)

ISS - Visible Passes

Search period start: 18 August 2019 00:00
Search period end: 28 August 2019 00:00
Orbit: 410 x 421 km, 51.6° (Epoch: 18 August)

Date Brightness Start Highest point End Pass type
(mag) Time Alt. Az. Time Alt. Az. Time Alt. Az.
18 Aug -1.6 19:09:50 10° NNW 19:10:57 18° N 19:10:57 18° N visible
19 Aug -2.0 18:22:03 10° NNE 18:24:15 17° NE 18:24:59 16° ENE visible
19 Aug -0.4 19:57:35 10° WNW 19:57:55 12° WNW 19:57:55 12° WNW visible
20 Aug -3.6 19:08:34 10° NW 19:11:51 70° SW 19:11:51 70° SW visible
21 Aug -3.6 18:19:52 10° NNW 18:23:10 56° NE 18:25:41 16° ESE visible
21 Aug -0.4 19:58:03 10° WSW 19:58:35 12° WSW 19:58:35 12° WSW visible
22 Aug -1.8 19:08:22 10° W 19:11:11 24° SW 19:12:17 20° S visible
23 Aug -2.6 18:19:04 10° WNW 18:22:16 41° SW 18:25:31 10° SSE visible
24 Aug -0.9 19:09:32 10° SW 19:10:37 11° SSW 19:11:43 10° S visible
25 Aug -1.2 18:19:17 10° WSW 18:21:34 17° SSW 18:23:51 10° S visible
